Location: *
(48.8667°N, 2.3331°E)
Time: 08:58:39
(UTC+00:00)

Cosmos 2061 Rocket - Pass Details

Date: 22 August 2020
Orbit: 966 x 1012 km, 82.9° (Epoch: 23 September)

Event Time Altitude Azimuth Distance (km) Brightness Sun altitude
Exits shadow 22:28:37 - 234° (SW) 2,948 6.4 -26.9°
Reaches altitude 10° 22:29:25 10° 238° (WSW) 2,705 6.2 -27.0°
Maximum altitude 22:34:31 26° 294° (WNW) 1,793 5.8 -27.3°
Drops below altitude 10° 22:39:41 10° 350° (N) 2,727 7.3 -27.6°
Sets 22:42:40 0° 3° (N) 3,683 8.0 -27.8°
